This demonstration page uses our WeatherBlox Daily Observations layout. Learn more.

Left ArrowRight Arrow

36.17497, -115.13722

Hourly Observations for August 24, 2016

Temp ( °F °C ) Dew Point ( °F °C ) Humidity (%) Winds ( mph kmh ) Pressure ( in mb ) Visibility ( mi km ) Precip ( " mm )
12:53 am 00:53 Clear with Rain 81 27.2 53 11.7 38 38 W 7 11 29.98 1015 10 16.0934 0 0.0254
1:53 am 01:53 Clear with Rain 78 25.6 55 12.8 45 45 NW 7 11 29.96 1015 10 16.0934 0 0.0254
2:53 am 02:53 Clear with Rain 77 25 54 12.2 45 45 NW 7 11 29.95 1014 10 16.0934 0 0.0254
3:53 am 03:53 Clear with Rain 76 24.4 52 11.1 43 43 E 3 6 29.96 1015 10 16.0934 0 0.0254
4:53 am 04:53 Clear with Rain 75 23.9 53 11.7 46 46 NW 7 11 29.98 1015 10 16.0934 0 0.0254
5:53 am 05:53 Clear with Rain 75 23.9 52 11.1 45 45 NNW 7 11 29.99 1016 10 16.0934 0 0.0254
6:53 am 06:53 Sunny with Rain 76 24.4 52 11.1 43 43 NW 7 11 30 1016 10 16.0934 0 0.0254
7:16 am 07:16 Sunny 77 25 54 12 44 44 NW 7 11 29.91 1013 10 16.0934 0 0
7:53 am 07:53 Sunny 81 27.2 52 11.1 37 37 WNW 5 7 30.01 1016 10 16.0934 0 0.0254
8:53 am 08:53 Sunny 83 28.3 51 10.6 33 33 ESE 3 6 30.01 1016 10 16.0934 0 0
9:53 am 09:53 Sunny 86 30 50 10 29 29 E 5 7 30.01 1016 10 16.0934 0 0
10:53 am 10:53 Sunny 89 31.7 50 10 26 26 ESE 3 6 30 1016 10 16.0934 0 0
11:53 am 11:53 Sunny 91 32.8 50 10 25 25 ENE 5 7 29.98 1015 10 16.0934 0 0
12:53 pm 12:53 Sunny 93 33.9 49 9.4 22 22 SE 5 7 29.94 1014 10 16.0934 0 0
1:53 pm 13:53 Sunny 96 35.6 49 9.4 20 20 ESE 8 13 29.92 1013 10 16.0934 0 0
2:53 pm 14:53 Sunny 99 37.2 47 8.3 17 17 VRB 5 7 29.88 1012 10 16.0934 0 0
3:53 pm 15:53 Sunny 100 37.8 45 7.2 15 15 Calm 29.85 1011 10 16.0934 0 0
4:53 pm 16:53 Sunny 100 37.8 44 6.7 15 15 E 9 15 29.82 1010 10 16.0934 0 0
5:53 pm 17:53 Sunny 99 37.2 43 6.1 15 15 ESE 8 13 29.81 1009 10 16.0934 0 0
6:53 pm 18:53 Sunny 99 37.2 41 5 14 14 NW 6 9 29.8 1009 10 16.0934 0 0
7:53 pm 19:53 Clear 97 36.1 35 1.7 11 11 W 8 13 29.8 1009 10 16.0934 0 0
8:53 pm 20:53 Clear 93 33.9 36 2.2 13 13 Calm 29.82 1010 10 16.0934 0 0
9:53 pm 21:53 Clear 92 33.3 37 2.8 14 14 SW 6 9 29.83 1010 10 16.0934 0 0
10:53 pm 22:53 Clear 90 32.2 37 2.8 15 15 SW 7 11 29.82 1010 10 16.0934 0 0
11:53 pm 23:53 Clear 88 31.1 37 2.8 16 16 SW 5 7 29.82 1010 10 16.0934 0 0

Powered by AerisWeather